Location: Eaton
(41.3139°N, 82.0207°W)
Time: 16:28:04
(UTC+00:00)

Cosmos 1655 Rocket - Pass Details

Date: 17 June 2021
Orbit: 971 x 1005 km, 82.9° (Epoch: 01 August)

Event Time Altitude Azimuth Distance (km) Brightness Sun altitude
Exits shadow 08:48:40 - 192° (SSW) 2,970 6.0 -10.5°
Reaches altitude 10° 08:49:22 10° 193° (SSW) 2,707 5.8 -10.4°
Maximum altitude 08:55:33 75° 278° (W) 1,010 4.0 -9.6°
Drops below altitude 10° 09:01:48 10° 4° (N) 2,731 7.1 -8.7°
Sets 09:04:21 0° 6° (N) 3,686 7.8 -8.3°
